This demonstration page uses our WeatherBlox Daily Observations layout. Learn more.

Left ArrowRight Arrow

39.95238, -75.16362

Hourly Observations for April 3, 2022

Temp ( °F °C ) Dew Point ( °F °C ) Humidity (%) Winds ( mph kmh ) Pressure ( in mb ) Visibility ( mi km ) Precip ( " mm )
12:54 am 00:54 Partly Cloudy 44 6.7 35 1.7 71 71 Calm 29.94 1014 10 16 0.00 0.00
1:54 am 01:54 Mostly Cloudy 44 6.7 36 2.2 73 73 Calm 29.92 1013 10 16 0.00 0.00
2:54 am 02:54 Mostly Cloudy 44 6.7 36 2.2 73 73 SSE 3 6 29.90 1013 10 16 0.00 0.00
3:54 am 03:54 Mostly Cloudy 44 6.7 37 2.8 76 76 Calm 29.88 1012 10 16 0.00 0.00
4:54 am 04:54 Cloudy 44 6.7 37 2.8 76 76 E 5 7 29.85 1011 10 16 0.00 0.00
5:54 am 05:54 Cloudy 44 6.7 37 2.8 76 76 ENE 5 7 29.83 1010 10 16 0.00 0.00
6:54 am 06:54 Cloudy with Light Rain 44 6.7 37 2.8 76 76 E 7 11 29.81 1009 10 16 0.00 0.00
7:50 am 07:50 Cloudy with Light Rain 45 7 37 3 76 76 Calm 29.81 1010 9 14 0.01 0.25
7:54 am 07:54 Cloudy with Light Rain 44 6.7 38 3.3 79 79 Calm 29.81 1010 10 16 0.01 0.25
8:47 am 08:47 Cloudy with Light Rain 45 7.2 39 3.9 80 80 ENE 3 6 29.81 1010 10 16 0.01 0.25
8:54 am 08:54 Cloudy with Light Rain 45 7.2 39 3.9 80 80 ENE 3 6 29.80 1009 10 16 0.01 0.25
9:41 am 09:41 Cloudy with Light Rain 46 7.8 40 4.4 79 79 Calm 29.80 1009 7 11 0.01 0.25
9:50 am 09:50 Cloudy with Light Rain 46 8 39 4 76 76 E 3 6 29.80 1009 8 13 0.02 0.51
9:54 am 09:54 Cloudy with Light Rain 46 7.8 40 4.4 79 79 E 5 7 29.79 1009 8 13 0.02 0.51
10:06 am 10:06 Cloudy with Light Rain 46 7.8 40 4.4 79 79 E 6 9 29.79 1009 10 16 0.01 0.25
10:54 am 10:54 Mostly Cloudy 48 8.9 42 5.6 80 80 E 3 6 29.79 1009 10 16 0.01 0.25
11:36 am 11:36 Mostly Cloudy 51 10.6 45 7.2 80 80 S 5 7 29.79 1009 10 16 0.00 0.00
11:54 am 11:54 Mostly Cloudy 50 10 43 6.1 77 77 VRB 3 6 29.78 1008 10 16 0.00 0.00
12:42 pm 12:42 Mostly Cloudy 54 12.2 43 6.1 67 67 WSW 7 11 29.77 1008 10 16 0.00 0.00
12:54 pm 12:54 Mostly Cloudy 53 11.7 41 5 64 64 VRB 3 6 29.77 1008 10 16 0.00 0.00
1:14 pm 13:14 Mostly Cloudy 53 11.7 41 5 64 64 NW 3 6 29.77 1008 10 16 0.00 0.00
1:54 pm 13:54 Mostly Cloudy 57 13.9 38 3.3 49 49 NW 13 20 29.75 1008 10 16 0.00 0.00
2:14 pm 14:14 Cloudy with Light Rain 55 12.8 39 3.9 55 55 W 29 46 29.78 1008 8 13 0.00 0.00
2:17 pm 14:17 Cloudy with Light Rain 52 11.1 40 4.4 64 64 W 31 50 29.78 1008 6 10 0.00 0.00
2:28 pm 14:28 Cloudy with Rain 48 8.9 42 5.6 80 80 W 25 41 29.80 1009 3 5 0.00 0.00
2:44 pm 14:44 Mostly Cloudy with Rain 48 8.9 42 5.6 80 80 NNW 10 17 29.77 1008 5 8 0.08 2.03
2:54 pm 14:54 Mostly Cloudy with Light Rain 49 9.4 42 5.6 77 77 NNW 5 7 29.76 1008 5 8 0.08 2.03
2:59 pm 14:59 Mostly Cloudy 51 10.6 42 5.6 71 71 NW 3 6 29.76 1008 7 11 0.00 0.00
3:22 pm 15:22 Mostly Cloudy 54 12.2 43 6.1 67 67 WNW 14 22 29.76 1008 10 16 0.00 0.00
3:54 pm 15:54 Mostly Cloudy 55 12.8 41 5 59 59 W 15 24 29.76 1008 10 16 0.00 0.00
4:54 pm 16:54 Mostly Cloudy 54 12.2 35 1.7 49 49 NW 23 37 29.78 1008 10 16 0.00 0.00
5:54 pm 17:54 Mostly Cloudy 52 11.1 32 0 47 47 WNW 25 41 29.81 1009 10 16 0.00 0.00
6:54 pm 18:54 Cloudy 51 10.6 30 -1.1 44 44 WNW 20 31 29.83 1010 10 16 0.00 0.00
7:54 pm 19:54 Mostly Cloudy 50 10 28 -2.2 43 43 WNW 15 24 29.86 1011 10 16 0.00 0.00
8:54 pm 20:54 Mostly Cloudy 48 8.9 29 -1.7 48 48 W 17 28 29.90 1012 10 16 0.00 0.00
9:54 pm 21:54 Cloudy 47 8.3 28 -2.2 48 48 WNW 23 37 29.91 1013 10 16 0.00 0.00
10:54 pm 22:54 Cloudy 46 7.8 29 -1.7 51 51 WNW 18 30 29.92 1013 10 16 0.00 0.00
11:54 pm 23:54 Cloudy 46 7.8 27 -2.8 47 47 NW 20 31 29.93 1014 10 16 0.00 0.00

Powered by AerisWeather